Tracking 28790 objects as of 19-Apr-2024
HD Live streaming from Space Station
objects crossing your sky now

THORAD AGENA D DEB

Track THORAD AGENA D DEB now!
10-day predictions


NORAD ID: 4612
Int'l Code: 1970-025Q
Perigee: 836.1 km
Apogee: 957.1 km
Inclination: 99.7 °
Period: 102.8 minutes
Semi major axis: 7267 km
RCS: 0.1023 m2 (medium)
Launch date: April 8, 1970
Source: United States (US)
Launch site: AIR FORCE WESTERN TEST RANGE (AFWTR)

Note: This is SATELLITE DEBRIS
Your satellite tracking list
Your tracking list is empty




NASA's NSSDC Master Catalog

Two Line Element Set (TLE):
1 04612U 70025Q   24109.55783523  .00002259  00000-0  14894-2 0  9997
2 04612  99.7249 328.7365 0083275 312.8872  46.5320 14.01250396734213
Source of the keplerian elements: AFSPC